Regional Weather Roundup
Issued by NWS

Home | Current Version | Previous Version | Graphics & Text | Print | Product List | Glossary On
Versions: 1 2 3 4 5 6 7 8 9 10 11 12 13 14 15 16 17 18 19 20 21 22 23 24 25 26 27 28 29 30 31 32 33 34 35 36 37 38 39 40 41 42 43 44 45 46 47 48 49 50
000
ASUS43 KFSD 201002
RWRSD

WEATHER ROUNDUP FOR SOUTH DAKOTA
NATIONAL WEATHER SERVICE SIOUX FALLS SD
400 AM CST MON NOV 20 2017

NOTE: "FAIR" INDICATES FEW OR NO CLOUDS BELOW 12,000 FEET WITH NO
SIGNIFICANT WEATHER AND/OR OBSTRUCTIONS TO VISIBILITY.


SDZ001>005-009-010-012>017-201100-
NORTHWEST AND NORTH CENTRAL SOUTH DAKOTA

CITY           SKY/WX    TMP DP  RH WIND       PRES   REMARKS
BUFFALO          N/A     42  16  34 W23       29.50F
FAITH            N/A     32  21  64 SW9       29.58F WCI  24
MOBRIDGE       CLOUDY    30  23  75 SE6       29.54F WCI  24
$$

SDZ012>016-024>037-041>051-057-063-072>074-201100-
SOUTHWEST AND SOUTH CENTRAL SOUTH DAKOTA

CITY           SKY/WX    TMP DP  RH WIND       PRES   REMARKS
RAPID CTY ARPT CLOUDY    35  15  44 CALM      29.62F
PIERRE         CLOUDY    30  22  72 SW8       29.60F WCI  22
CUSTER         CLOUDY    39   7  26 W13       29.71S
ELLSWORTH AFB  CLOUDY    43  11  27 SW7       29.61F
PHILIP         CLOUDY    33  21  61 W10       29.61F WCI  25
PINE RIDGE     CLOUDY    31  15  52 CALM      29.71F
SPEARFISH      FAIR      50   9  18 SW8G15    29.64S
WINNER         FAIR      39  19  44 SW9       29.63F
$$

SDZ004>011-016>023-039-040-201100-
NORTHEAST SOUTH DAKOTA

CITY           SKY/WX    TMP DP  RH WIND       PRES   REMARKS
ABERDEEN       CLOUDY    20  18  92 S5        29.59F WCI  13
WATERTOWN      CLOUDY    27  22  81 S7        29.61F WCI  19
BROOKINGS      CLOUDY    28  22  78 SE8       29.65  WCI  20
SISSETON         N/A     29  23  78 SE8       29.58F WCI  21
$$

SDZ017-020-022-023-036>040-048>070-201100-
SOUTHEAST SOUTH DAKOTA

CITY           SKY/WX    TMP DP  RH WIND       PRES   REMARKS
SIOUX FALLS    CLOUDY    25  21  85 SE3       29.67F
HURON          CLOUDY    28  22  78 SE8       29.61F WCI  20
CHAMBERLAIN    CLOUDY    30  21  70 SW6       29.61F WCI  24
MITCHELL       CLOUDY    30  24  78 S6        29.64F WCI  24
YANKTON        CLOUDY    36  23  59 SE5       29.68F
$$

ABBREVIATIONS USED IN REMARKS
   TC - TEMPERATURE IN CELSIUS
  WCI - WIND CHILL INDEX
   HX - HEAT INDEX
  VSB - VISIBILITY





USA.gov is the U.S. government's official web portal to all federal, state and local government web resources and services.